Location: Kirkland Lake
(48.1510°N, 80.0330°W)
Time: 08:24:55
(UTC-04:00)

ISS - Pass Details

Date: 19 April 2026
Orbit: 414 x 424 km, 51.6° (Epoch: 18 May)

Event Time Altitude Azimuth Distance (km) Brightness Sun altitude
Exits shadow 04:51:12 - 169° (S) 1,685 -0.9 -14.4°
Reaches altitude 10° 04:52:12 10° 155° (SSE) 1,494 -1.1 -14.3°
Maximum altitude 04:53:24 12° 134° (SE) 1,405 -1.0 -14.1°
Drops below altitude 10° 04:54:37 10° 112° (ESE) 1,500 -0.5 -14.0°
Sets 04:57:53 0° 78° (ENE) 2,374 1.4 -13.5°
